Location: ????????
(38.4362°N, 22.8767°E)
Time: 00:29:26
(UTC+00:00)

Cosmos 1092 Rocket - Pass Details

Date: 02 May 2025
Orbit: 953 x 994 km, 82.9° (Epoch: 16 May)

Event Time Altitude Azimuth Distance (km) Brightness Sun altitude
Rises 17:52:03 0° 337° (NNW) 3,661 7.9 -6.4°
Reaches altitude 10° 17:55:10 10° 322° (NW) 2,717 7.5 -6.9°
Maximum altitude 17:59:34 21° 276° (W) 2,051 6.8 -7.7°
Drops below altitude 10° 18:04:00 10° 231° (SW) 2,725 6.7 -8.5°
Sets 18:07:10 0° 215° (SW) 3,675 7.1 -9.0°
